Showing default

COSMOS 1911, 18790

Orbit data source: Space-Track

COSMOS 1911, 18790 is a payload satellite owned by UNKS (CIS) in LEO that was launched on Fri, 15 Jan 1988 UTC via a TSIKLON-3 launch vehicle from the Plesetsk Missile And Space Complex (PKMTR). Payload-class satellites include a variety of spacecraft equipped with specific instruments for various scientific and technological missions. These include communications satellites like Starlink; space stations such as the ISS; scientific satellites like the Hubble; Earth observation satellites from companies like Planet Labs, Umbra, and HawkEye 360; GPS; miniature CubeSats for education and research; and military/defense satellites.

Loading next visibility...
Identifier
18790, 1988-002C
Orbit
LEO
Country
Flag of CISCIS
Related business
Manufacturer
NPO PM
Mission
Defense Communications
Bus & Motor
STRELA-3, Unknown motor
Mass
225 kg wet, 225 kg dry
Launch date (UTC)
1988-01-15 (38 years ago)
Launch vehicle
TSIKLON-3
Launch site
Plesetsk Missile And Space Complex (PKMTR)
Object type
Payload
Rocket body
Debris
Shape & HBR
Cyl, 0.8 m
Radar Cross Section
1.257 m², Large (>1 m²)

Expand to show TLE details & history
Last TLE update: 11 hours ago

TLE from 11 hours ago
0 COSMOS 1911
1 18790U 88002C   25351.77372530  .00000036  00000-0  13685-3 0  9998
2 18790  82.6092   4.2723 0007355 176.5935 357.6893 12.64379197750022
Epoch: 2025-12-17T18:34Z
TLE epoch observation values (Epoch: 2025-12-17T18:34:09.865Z)
Latitude
5.5966°
Longitude
178.36773°
Altitude
1,401.384 km
Speed
7.162 km/s
True Right ascension
12h 14m 11s
True Declination
5° 33' 58"
Sunlit
Object was in daylight at epoch
Visualization orbit readout
Latitude
Unknown
Longitude
Unknown
Altitude
Unknown
Speed
Unknown
Apparent Right ascension
Unknown
Apparent Declination
Unknown
Sunlit
N/A
Visualization observer readout
Local Sidereal Time
04:50:12
Azimuth
Unknown
Elevation
Unknown
Doppler factor
Unknown
Orbital elements
Apogee altitude
1,407.96 km
Perigee altitude
1,396.515 km
Semi-major axis
7,780.375 km
Eccentricity
0.00074
Inclination
82.6092°
RAAN
4.2723°
Arg. of periapsis
176.5935°
True anomaly
357.6859°
Mean anomaly
357.6893°
Eccentric anomaly
357.6876°
Mean motion
3.16259 °/min
Orbital period
113.83 mins
BSTAR
0.00013685
Loading maneuver chart data...
Computing Atmospheric mass density...
Loading historical data...
Loading historical data...
Loading historical data...
Loading historical data...
Loading historical data...
Loading historical data...
Loading historical data...

Documentation

Showing up to 5 results
|